#datetime,building,power
2022-05-03T00:00:00,campus,1584.00
2022-05-03T00:01:00,campus,1578.00
2022-05-03T00:02:00,campus,1572.00
2022-05-03T00:03:00,campus,1566.00
2022-05-03T00:04:00,campus,1560.00
2022-05-03T00:05:00,campus,1554.00
2022-05-03T00:06:00,campus,1548.00
2022-05-03T00:07:00,campus,1542.00
2022-05-03T00:08:00,campus,1536.00
2022-05-03T00:09:00,campus,1530.00
2022-05-03T00:10:00,campus,1524.00
2022-05-03T00:11:00,campus,1518.00
2022-05-03T00:12:00,campus,1512.00
2022-05-03T00:13:00,campus,1506.00
2022-05-03T00:14:00,campus,1500.00
2022-05-03T00:15:00,campus,1494.00
2022-05-03T00:16:00,campus,1494.00
2022-05-03T00:17:00,campus,1488.00
2022-05-03T00:18:00,campus,1482.00
2022-05-03T00:19:00,campus,1482.00
2022-05-03T00:20:00,campus,1476.00
2022-05-03T00:21:00,campus,1470.00
2022-05-03T00:22:00,campus,1464.00
2022-05-03T00:23:00,campus,1458.00
2022-05-03T00:24:00,campus,1458.00
2022-05-03T00:25:00,campus,1452.00
2022-05-03T00:26:00,campus,1446.00
2022-05-03T00:27:00,campus,1440.00
2022-05-03T00:28:00,campus,1434.00
2022-05-03T00:29:00,campus,1428.00
2022-05-03T00:30:00,campus,1422.00
2022-05-03T00:31:00,campus,1416.00
2022-05-03T00:32:00,campus,1416.00
2022-05-03T00:33:00,campus,1410.00
2022-05-03T00:34:00,campus,1410.00
2022-05-03T00:35:00,campus,1404.00
2022-05-03T00:36:00,campus,1404.00
2022-05-03T00:37:00,campus,1404.00
2022-05-03T00:38:00,campus,1398.00
2022-05-03T00:39:00,campus,1398.00
2022-05-03T00:40:00,campus,1398.00
2022-05-03T00:41:00,campus,1398.00
2022-05-03T00:42:00,campus,1392.00
2022-05-03T00:43:00,campus,1392.00
2022-05-03T00:44:00,campus,1386.00
2022-05-03T00:45:00,campus,1386.00
2022-05-03T00:46:00,campus,1380.00
2022-05-03T00:47:00,campus,1374.00
2022-05-03T00:48:00,campus,1374.00
2022-05-03T00:49:00,campus,1368.00
2022-05-03T00:50:00,campus,1368.00
2022-05-03T00:51:00,campus,1368.00
2022-05-03T00:52:00,campus,1362.00
2022-05-03T00:53:00,campus,1362.00
2022-05-03T00:54:00,campus,1362.00
2022-05-03T00:55:00,campus,1356.00
2022-05-03T00:56:00,campus,1356.00
2022-05-03T00:57:00,campus,1350.00
2022-05-03T00:58:00,campus,1350.00
2022-05-03T00:59:00,campus,1350.00
2022-05-03T01:00:00,campus,1344.00
2022-05-03T01:01:00,campus,1344.00
2022-05-03T01:02:00,campus,1344.00
2022-05-03T01:03:00,campus,1338.00
2022-05-03T01:04:00,campus,1338.00
2022-05-03T01:05:00,campus,1332.00
2022-05-03T01:06:00,campus,1326.00
2022-05-03T01:07:00,campus,1326.00
2022-05-03T01:08:00,campus,1320.00
2022-05-03T01:09:00,campus,1314.00
2022-05-03T01:10:00,campus,1308.00
2022-05-03T01:11:00,campus,1302.00
2022-05-03T01:12:00,campus,1302.00
2022-05-03T01:13:00,campus,1296.00
2022-05-03T01:14:00,campus,1296.00
2022-05-03T01:15:00,campus,1290.00
2022-05-03T01:16:00,campus,1284.00
2022-05-03T01:17:00,campus,1284.00
2022-05-03T01:18:00,campus,1278.00
2022-05-03T01:19:00,campus,1278.00
2022-05-03T01:20:00,campus,1272.00
2022-05-03T01:21:00,campus,1266.00
2022-05-03T01:22:00,campus,1266.00
2022-05-03T01:23:00,campus,1260.00
2022-05-03T01:24:00,campus,1260.00
2022-05-03T01:25:00,campus,1254.00
2022-05-03T01:26:00,campus,1254.00
2022-05-03T01:27:00,campus,1248.00
2022-05-03T01:28:00,campus,1248.00
2022-05-03T01:29:00,campus,1242.00
2022-05-03T01:30:00,campus,1242.00
2022-05-03T01:31:00,campus,1236.00
2022-05-03T01:32:00,campus,1236.00
2022-05-03T01:33:00,campus,1230.00
2022-05-03T01:34:00,campus,1230.00
2022-05-03T01:35:00,campus,1230.00
2022-05-03T01:36:00,campus,1230.00
2022-05-03T01:37:00,campus,1224.00
2022-05-03T01:38:00,campus,1224.00
2022-05-03T01:39:00,campus,1224.00
2022-05-03T01:40:00,campus,1224.00
2022-05-03T01:41:00,campus,1224.00
2022-05-03T01:42:00,campus,1224.00
2022-05-03T01:43:00,campus,1224.00
2022-05-03T01:44:00,campus,1218.00
2022-05-03T01:45:00,campus,1218.00
2022-05-03T01:46:00,campus,1212.00
2022-05-03T01:47:00,campus,1212.00
2022-05-03T01:48:00,campus,1212.00
2022-05-03T01:49:00,campus,1212.00
2022-05-03T01:50:00,campus,1212.00
2022-05-03T01:51:00,campus,1206.00
2022-05-03T01:52:00,campus,1206.00
2022-05-03T01:53:00,campus,1206.00
2022-05-03T01:54:00,campus,1200.00
2022-05-03T01:55:00,campus,1200.00
2022-05-03T01:56:00,campus,1194.00
2022-05-03T01:57:00,campus,1194.00
2022-05-03T01:58:00,campus,1194.00
2022-05-03T01:59:00,campus,1194.00
2022-05-03T02:00:00,campus,1194.00
2022-05-03T02:01:00,campus,1188.00
2022-05-03T02:02:00,campus,1194.00
2022-05-03T02:03:00,campus,1188.00
2022-05-03T02:04:00,campus,1188.00
2022-05-03T02:05:00,campus,1188.00
2022-05-03T02:06:00,campus,1188.00
2022-05-03T02:07:00,campus,1188.00
2022-05-03T02:08:00,campus,1182.00
2022-05-03T02:09:00,campus,1182.00
2022-05-03T02:10:00,campus,1182.00
2022-05-03T02:11:00,campus,1182.00
2022-05-03T02:12:00,campus,1182.00
2022-05-03T02:13:00,campus,1182.00
2022-05-03T02:14:00,campus,1182.00
2022-05-03T02:15:00,campus,1182.00
2022-05-03T02:16:00,campus,1182.00
2022-05-03T02:17:00,campus,1182.00
2022-05-03T02:18:00,campus,1182.00
2022-05-03T02:19:00,campus,1182.00
2022-05-03T02:20:00,campus,1182.00
2022-05-03T02:21:00,campus,1182.00
2022-05-03T02:22:00,campus,1182.00
2022-05-03T02:23:00,campus,1176.00
2022-05-03T02:24:00,campus,1176.00
2022-05-03T02:25:00,campus,1176.00
2022-05-03T02:26:00,campus,1176.00
2022-05-03T02:27:00,campus,1182.00
2022-05-03T02:28:00,campus,1176.00
2022-05-03T02:29:00,campus,1176.00
2022-05-03T02:30:00,campus,1176.00
2022-05-03T02:31:00,campus,1182.00
2022-05-03T02:32:00,campus,1182.00
2022-05-03T02:33:00,campus,1182.00
2022-05-03T02:34:00,campus,1182.00
2022-05-03T02:35:00,campus,1188.00
2022-05-03T02:36:00,campus,1188.00
2022-05-03T02:37:00,campus,1188.00
2022-05-03T02:38:00,campus,1194.00
2022-05-03T02:39:00,campus,1194.00
2022-05-03T02:40:00,campus,1194.00
2022-05-03T02:41:00,campus,1194.00
2022-05-03T02:42:00,campus,1194.00
2022-05-03T02:43:00,campus,1194.00
2022-05-03T02:44:00,campus,1194.00
2022-05-03T02:45:00,campus,1194.00
2022-05-03T02:46:00,campus,1194.00
2022-05-03T02:47:00,campus,1194.00
2022-05-03T02:48:00,campus,1194.00
2022-05-03T02:49:00,campus,1194.00
2022-05-03T02:50:00,campus,1194.00
2022-05-03T02:51:00,campus,1200.00
2022-05-03T02:52:00,campus,1200.00
2022-05-03T02:53:00,campus,1200.00
2022-05-03T02:54:00,campus,1200.00
2022-05-03T02:55:00,campus,1200.00
2022-05-03T02:56:00,campus,1200.00
2022-05-03T02:57:00,campus,1200.00
2022-05-03T02:58:00,campus,1200.00
2022-05-03T02:59:00,campus,1200.00
2022-05-03T03:00:00,campus,1200.00
2022-05-03T03:01:00,campus,1200.00
2022-05-03T03:02:00,campus,1194.00
2022-05-03T03:03:00,campus,1194.00
2022-05-03T03:04:00,campus,1194.00
2022-05-03T03:05:00,campus,1194.00
2022-05-03T03:06:00,campus,1194.00
2022-05-03T03:07:00,campus,1188.00
2022-05-03T03:08:00,campus,1188.00
2022-05-03T03:09:00,campus,1188.00
2022-05-03T03:10:00,campus,1188.00
2022-05-03T03:11:00,campus,1188.00
2022-05-03T03:12:00,campus,1188.00
2022-05-03T03:13:00,campus,1188.00
2022-05-03T03:14:00,campus,1188.00
2022-05-03T03:15:00,campus,1188.00
2022-05-03T03:16:00,campus,1188.00
2022-05-03T03:17:00,campus,1188.00
2022-05-03T03:18:00,campus,1188.00
2022-05-03T03:19:00,campus,1182.00
2022-05-03T03:20:00,campus,1182.00
2022-05-03T03:21:00,campus,1182.00
2022-05-03T03:22:00,campus,1176.00
2022-05-03T03:23:00,campus,1176.00
2022-05-03T03:24:00,campus,1176.00
2022-05-03T03:25:00,campus,1176.00
2022-05-03T03:26:00,campus,1176.00
2022-05-03T03:27:00,campus,1176.00
2022-05-03T03:28:00,campus,1176.00
2022-05-03T03:29:00,campus,1176.00
2022-05-03T03:30:00,campus,1176.00
2022-05-03T03:31:00,campus,1176.00
2022-05-03T03:32:00,campus,1176.00
2022-05-03T03:33:00,campus,1176.00
2022-05-03T03:34:00,campus,1176.00
2022-05-03T03:35:00,campus,1170.00
2022-05-03T03:36:00,campus,1170.00
2022-05-03T03:37:00,campus,1170.00
2022-05-03T03:38:00,campus,1170.00
2022-05-03T03:39:00,campus,1170.00
2022-05-03T03:40:00,campus,1164.00
2022-05-03T03:41:00,campus,1164.00
2022-05-03T03:42:00,campus,1164.00
2022-05-03T03:43:00,campus,1164.00
2022-05-03T03:44:00,campus,1164.00
2022-05-03T03:45:00,campus,1164.00
2022-05-03T03:46:00,campus,1164.00
2022-05-03T03:47:00,campus,1164.00
2022-05-03T03:48:00,campus,1164.00
2022-05-03T03:49:00,campus,1164.00
2022-05-03T03:50:00,campus,1164.00
2022-05-03T03:51:00,campus,1164.00
2022-05-03T03:52:00,campus,1164.00
2022-05-03T03:53:00,campus,1164.00
2022-05-03T03:54:00,campus,1164.00
2022-05-03T03:55:00,campus,1164.00
2022-05-03T03:56:00,campus,1164.00
2022-05-03T03:57:00,campus,1164.00
2022-05-03T03:58:00,campus,1158.00
2022-05-03T03:59:00,campus,1158.00
2022-05-03T04:00:00,campus,1158.00
2022-05-03T04:01:00,campus,1158.00
2022-05-03T04:02:00,campus,1158.00
2022-05-03T04:03:00,campus,1158.00
2022-05-03T04:04:00,campus,1158.00
2022-05-03T04:05:00,campus,1158.00
2022-05-03T04:06:00,campus,1158.00
2022-05-03T04:07:00,campus,1164.00
2022-05-03T04:08:00,campus,1164.00
2022-05-03T04:09:00,campus,1164.00
2022-05-03T04:10:00,campus,1170.00
2022-05-03T04:11:00,campus,1170.00
2022-05-03T04:12:00,campus,1170.00
2022-05-03T04:13:00,campus,1176.00
2022-05-03T04:14:00,campus,1176.00
2022-05-03T04:15:00,campus,1182.00
2022-05-03T04:16:00,campus,1182.00
2022-05-03T04:17:00,campus,1182.00
2022-05-03T04:18:00,campus,1188.00
2022-05-03T04:19:00,campus,1188.00
2022-05-03T04:20:00,campus,1188.00
2022-05-03T04:21:00,campus,1188.00
2022-05-03T04:22:00,campus,1194.00
2022-05-03T04:23:00,campus,1194.00
2022-05-03T04:24:00,campus,1194.00
2022-05-03T04:25:00,campus,1194.00
2022-05-03T04:26:00,campus,1200.00
2022-05-03T04:27:00,campus,1200.00
2022-05-03T04:28:00,campus,1206.00
2022-05-03T04:29:00,campus,1212.00
2022-05-03T04:30:00,campus,1218.00
2022-05-03T04:31:00,campus,1218.00
2022-05-03T04:32:00,campus,1224.00
2022-05-03T04:33:00,campus,1230.00
2022-05-03T04:34:00,campus,1230.00
2022-05-03T04:35:00,campus,1236.00
2022-05-03T04:36:00,campus,1242.00
2022-05-03T04:37:00,campus,1242.00
2022-05-03T04:38:00,campus,1248.00
2022-05-03T04:39:00,campus,1248.00
2022-05-03T04:40:00,campus,1254.00
2022-05-03T04:41:00,campus,1260.00
2022-05-03T04:42:00,campus,1260.00
2022-05-03T04:43:00,campus,1266.00
2022-05-03T04:44:00,campus,1266.00
2022-05-03T04:45:00,campus,1266.00
2022-05-03T04:46:00,campus,1272.00
2022-05-03T04:47:00,campus,1272.00
2022-05-03T04:48:00,campus,1272.00
2022-05-03T04:49:00,campus,1278.00
2022-05-03T04:50:00,campus,1284.00
2022-05-03T04:51:00,campus,1284.00
2022-05-03T04:52:00,campus,1284.00
2022-05-03T04:53:00,campus,1290.00
2022-05-03T04:54:00,campus,1290.00
2022-05-03T04:55:00,campus,1296.00
2022-05-03T04:56:00,campus,1296.00
2022-05-03T04:57:00,campus,1296.00
2022-05-03T04:58:00,campus,1296.00
2022-05-03T04:59:00,campus,1296.00
2022-05-03T05:00:00,campus,1296.00
2022-05-03T05:01:00,campus,1296.00
2022-05-03T05:02:00,campus,1296.00
2022-05-03T05:03:00,campus,1302.00
2022-05-03T05:04:00,campus,1302.00
2022-05-03T05:05:00,campus,1308.00
2022-05-03T05:06:00,campus,1308.00
2022-05-03T05:07:00,campus,1314.00
2022-05-03T05:08:00,campus,1314.00
2022-05-03T05:09:00,campus,1320.00
2022-05-03T05:10:00,campus,1320.00
2022-05-03T05:11:00,campus,1320.00
2022-05-03T05:12:00,campus,1326.00
2022-05-03T05:13:00,campus,1332.00
2022-05-03T05:14:00,campus,1332.00
2022-05-03T05:15:00,campus,1332.00
2022-05-03T05:16:00,campus,1338.00
2022-05-03T05:17:00,campus,1344.00
2022-05-03T05:18:00,campus,1350.00
2022-05-03T05:19:00,campus,1356.00
2022-05-03T05:20:00,campus,1362.00
2022-05-03T05:21:00,campus,1362.00
2022-05-03T05:22:00,campus,1368.00
2022-05-03T05:23:00,campus,1374.00
2022-05-03T05:24:00,campus,1380.00
2022-05-03T05:25:00,campus,1380.00
2022-05-03T05:26:00,campus,1386.00
2022-05-03T05:27:00,campus,1392.00
2022-05-03T05:28:00,campus,1392.00
2022-05-03T05:29:00,campus,1398.00
2022-05-03T05:30:00,campus,1398.00
2022-05-03T05:31:00,campus,1404.00
2022-05-03T05:32:00,campus,1404.00
2022-05-03T05:33:00,campus,1404.00
2022-05-03T05:34:00,campus,1404.00
2022-05-03T05:35:00,campus,1404.00
2022-05-03T05:36:00,campus,1404.00
2022-05-03T05:37:00,campus,1404.00
2022-05-03T05:38:00,campus,1404.00
2022-05-03T05:39:00,campus,1404.00
2022-05-03T05:40:00,campus,1410.00
2022-05-03T05:41:00,campus,1404.00
2022-05-03T05:42:00,campus,1404.00
2022-05-03T05:43:00,campus,1404.00
2022-05-03T05:44:00,campus,1404.00
2022-05-03T05:45:00,campus,1404.00
2022-05-03T05:46:00,campus,1404.00
2022-05-03T05:47:00,campus,1404.00
2022-05-03T05:48:00,campus,1398.00
2022-05-03T05:49:00,campus,1398.00
2022-05-03T05:50:00,campus,1398.00
2022-05-03T05:51:00,campus,1398.00
2022-05-03T05:52:00,campus,1398.00
2022-05-03T05:53:00,campus,1398.00
2022-05-03T05:54:00,campus,1398.00
2022-05-03T05:55:00,campus,1404.00
2022-05-03T05:56:00,campus,1404.00
2022-05-03T05:57:00,campus,1404.00
2022-05-03T05:58:00,campus,1410.00
2022-05-03T05:59:00,campus,1410.00
2022-05-03T06:00:00,campus,1416.00
2022-05-03T06:01:00,campus,1416.00
2022-05-03T06:02:00,campus,1416.00
2022-05-03T06:03:00,campus,1422.00
2022-05-03T06:04:00,campus,1428.00
2022-05-03T06:05:00,campus,1428.00
2022-05-03T06:06:00,campus,1434.00
2022-05-03T06:07:00,campus,1440.00
2022-05-03T06:08:00,campus,1446.00
2022-05-03T06:09:00,campus,1452.00
2022-05-03T06:10:00,campus,1458.00
2022-05-03T06:11:00,campus,1464.00
2022-05-03T06:12:00,campus,1464.00
2022-05-03T06:13:00,campus,1470.00
2022-05-03T06:14:00,campus,1476.00
2022-05-03T06:15:00,campus,1482.00
2022-05-03T06:16:00,campus,1488.00
2022-05-03T06:17:00,campus,1494.00
2022-05-03T06:18:00,campus,1500.00
2022-05-03T06:19:00,campus,1500.00
2022-05-03T06:20:00,campus,1506.00
2022-05-03T06:21:00,campus,1512.00
2022-05-03T06:22:00,campus,1518.00
2022-05-03T06:23:00,campus,1518.00
2022-05-03T06:24:00,campus,1524.00
2022-05-03T06:25:00,campus,1524.00
2022-05-03T06:26:00,campus,1524.00
2022-05-03T06:27:00,campus,1530.00
2022-05-03T06:28:00,campus,1530.00
2022-05-03T06:29:00,campus,1530.00
2022-05-03T06:30:00,campus,1536.00
2022-05-03T06:31:00,campus,1536.00
2022-05-03T06:32:00,campus,1542.00
2022-05-03T06:33:00,campus,1542.00
2022-05-03T06:34:00,campus,1548.00
2022-05-03T06:35:00,campus,1548.00
2022-05-03T06:36:00,campus,1548.00
2022-05-03T06:37:00,campus,1548.00
2022-05-03T06:38:00,campus,1548.00
2022-05-03T06:39:00,campus,1548.00
2022-05-03T06:40:00,campus,1554.00
2022-05-03T06:41:00,campus,1554.00
2022-05-03T06:42:00,campus,1554.00
2022-05-03T06:43:00,campus,1560.00
2022-05-03T06:44:00,campus,1560.00
2022-05-03T06:45:00,campus,1566.00
2022-05-03T06:46:00,campus,1566.00
2022-05-03T06:47:00,campus,1572.00
2022-05-03T06:48:00,campus,1572.00
2022-05-03T06:49:00,campus,1572.00
2022-05-03T06:50:00,campus,1578.00
2022-05-03T06:51:00,campus,1578.00
2022-05-03T06:52:00,campus,1584.00
2022-05-03T06:53:00,campus,1584.00
2022-05-03T06:54:00,campus,1584.00
2022-05-03T06:55:00,campus,1584.00
2022-05-03T06:56:00,campus,1584.00
2022-05-03T06:57:00,campus,1584.00
2022-05-03T06:58:00,campus,1584.00
2022-05-03T06:59:00,campus,1584.00
2022-05-03T07:00:00,campus,1584.00
2022-05-03T07:01:00,campus,1584.00
2022-05-03T07:02:00,campus,1584.00
2022-05-03T07:03:00,campus,1584.00
2022-05-03T07:04:00,campus,1584.00
2022-05-03T07:05:00,campus,1584.00
2022-05-03T07:06:00,campus,1590.00
2022-05-03T07:07:00,campus,1590.00
2022-05-03T07:08:00,campus,1596.00
2022-05-03T07:09:00,campus,1596.00
2022-05-03T07:10:00,campus,1602.00
2022-05-03T07:11:00,campus,1602.00
2022-05-03T07:12:00,campus,1608.00
2022-05-03T07:13:00,campus,1608.00
2022-05-03T07:14:00,campus,1614.00
2022-05-03T07:15:00,campus,1614.00
2022-05-03T07:16:00,campus,1620.00
2022-05-03T07:17:00,campus,1620.00
2022-05-03T07:18:00,campus,1626.00
2022-05-03T07:19:00,campus,1626.00
2022-05-03T07:20:00,campus,1626.00
2022-05-03T07:21:00,campus,1632.00
2022-05-03T07:22:00,campus,1638.00
2022-05-03T07:23:00,campus,1638.00
2022-05-03T07:24:00,campus,1644.00
2022-05-03T07:25:00,campus,1650.00
2022-05-03T07:26:00,campus,1656.00
2022-05-03T07:27:00,campus,1662.00
2022-05-03T07:28:00,campus,1668.00
2022-05-03T07:29:00,campus,1674.00
2022-05-03T07:30:00,campus,1680.00
2022-05-03T07:31:00,campus,1680.00
2022-05-03T07:32:00,campus,1686.00
2022-05-03T07:33:00,campus,1692.00
2022-05-03T07:34:00,campus,1692.00
2022-05-03T07:35:00,campus,1698.00
2022-05-03T07:36:00,campus,1704.00
2022-05-03T07:37:00,campus,1704.00
2022-05-03T07:38:00,campus,1710.00
2022-05-03T11:49:00,campus,2550.00
2022-05-03T11:50:00,campus,2568.00
2022-05-03T11:51:00,campus,2580.00
2022-05-03T11:52:00,campus,2580.00
2022-05-03T11:53:00,campus,2592.00
2022-05-03T11:54:00,campus,2592.00
2022-05-03T11:55:00,campus,2580.00
2022-05-03T11:56:00,campus,2568.00
2022-05-03T11:57:00,campus,2568.00
2022-05-03T11:58:00,campus,2568.00
2022-05-03T11:59:00,campus,2562.00
2022-05-03T12:00:00,campus,2568.00
2022-05-03T12:01:00,campus,2568.00
2022-05-03T12:02:00,campus,2556.00
2022-05-03T12:03:00,campus,2550.00
2022-05-03T12:04:00,campus,2538.00
2022-05-03T12:05:00,campus,2532.00
2022-05-03T12:06:00,campus,2520.00
2022-05-03T12:07:00,campus,2514.00
2022-05-03T12:08:00,campus,2508.00
2022-05-03T12:09:00,campus,2502.00
2022-05-03T12:10:00,campus,2490.00
2022-05-03T12:11:00,campus,2484.00
2022-05-03T12:12:00,campus,2472.00
2022-05-03T12:13:00,campus,2472.00
2022-05-03T12:14:00,campus,2460.00
2022-05-03T12:15:00,campus,2454.00
2022-05-03T12:16:00,campus,2454.00
2022-05-03T12:17:00,campus,2448.00
2022-05-03T12:18:00,campus,2448.00
2022-05-03T12:19:00,campus,2442.00
2022-05-03T12:20:00,campus,2436.00
2022-05-03T12:21:00,campus,2424.00
2022-05-03T12:22:00,campus,2418.00
2022-05-03T12:23:00,campus,2412.00
2022-05-03T12:24:00,campus,2406.00
2022-05-03T12:25:00,campus,2400.00
2022-05-03T12:26:00,campus,2394.00
2022-05-03T12:27:00,campus,2388.00
2022-05-03T12:28:00,campus,2382.00
2022-05-03T12:29:00,campus,2376.00
2022-05-03T12:30:00,campus,2370.00
2022-05-03T12:31:00,campus,2358.00
2022-05-03T12:32:00,campus,2358.00
2022-05-03T12:33:00,campus,2352.00
2022-05-03T12:34:00,campus,2352.00
2022-05-03T12:35:00,campus,2352.00
2022-05-03T12:36:00,campus,2352.00
2022-05-03T12:37:00,campus,2352.00
2022-05-03T12:38:00,campus,2352.00
2022-05-03T12:39:00,campus,2352.00
2022-05-03T12:40:00,campus,2352.00
2022-05-03T12:41:00,campus,2352.00
2022-05-03T12:42:00,campus,2352.00
2022-05-03T12:43:00,campus,2352.00
2022-05-03T12:44:00,campus,2352.00
2022-05-03T12:45:00,campus,2352.00
2022-05-03T12:46:00,campus,2346.00
2022-05-03T12:47:00,campus,2346.00
2022-05-03T12:48:00,campus,2346.00
2022-05-03T12:49:00,campus,2340.00
2022-05-03T12:50:00,campus,2340.00
2022-05-03T12:51:00,campus,2340.00
2022-05-03T12:52:00,campus,2340.00
2022-05-03T12:53:00,campus,2340.00
2022-05-03T12:54:00,campus,2334.00
2022-05-03T12:55:00,campus,2334.00
2022-05-03T12:56:00,campus,2334.00
2022-05-03T12:57:00,campus,2334.00
2022-05-03T12:58:00,campus,2334.00
2022-05-03T12:59:00,campus,2334.00
2022-05-03T13:00:00,campus,2340.00
2022-05-03T13:01:00,campus,2346.00
2022-05-03T13:02:00,campus,2346.00
2022-05-03T13:03:00,campus,2346.00
2022-05-03T13:04:00,campus,2352.00
2022-05-03T13:05:00,campus,2352.00
2022-05-03T13:06:00,campus,2358.00
2022-05-03T13:07:00,campus,2358.00
2022-05-03T13:08:00,campus,2364.00
2022-05-03T13:09:00,campus,2370.00
2022-05-03T13:10:00,campus,2370.00
2022-05-03T13:11:00,campus,2376.00
2022-05-03T13:12:00,campus,2388.00
2022-05-03T13:13:00,campus,2394.00
2022-05-03T13:14:00,campus,2406.00
2022-05-03T13:15:00,campus,2418.00
2022-05-03T13:16:00,campus,2424.00
2022-05-03T13:17:00,campus,2430.00
2022-05-03T13:18:00,campus,2442.00
2022-05-03T13:19:00,campus,2448.00
2022-05-03T13:20:00,campus,2460.00
2022-05-03T13:21:00,campus,2466.00
2022-05-03T13:22:00,campus,2472.00
2022-05-03T13:23:00,campus,2478.00
2022-05-03T13:24:00,campus,2484.00
2022-05-03T13:25:00,campus,2490.00
2022-05-03T13:26:00,campus,2496.00
2022-05-03T13:27:00,campus,2502.00
2022-05-03T13:28:00,campus,2508.00
2022-05-03T13:29:00,campus,2514.00
2022-05-03T13:30:00,campus,2514.00
2022-05-03T13:31:00,campus,2520.00
2022-05-03T13:32:00,campus,2520.00
2022-05-03T13:33:00,campus,2526.00
2022-05-03T13:34:00,campus,2526.00
2022-05-03T13:35:00,campus,2532.00
2022-05-03T13:36:00,campus,2538.00
2022-05-03T13:37:00,campus,2544.00
2022-05-03T13:38:00,campus,2544.00
2022-05-03T13:39:00,campus,2550.00
2022-05-03T13:40:00,campus,2550.00
2022-05-03T13:41:00,campus,2550.00
2022-05-03T13:42:00,campus,2556.00
2022-05-03T13:43:00,campus,2556.00
2022-05-03T13:44:00,campus,2550.00
2022-05-03T13:45:00,campus,2550.00
2022-05-03T13:46:00,campus,2550.00
2022-05-03T13:47:00,campus,2544.00
2022-05-03T13:48:00,campus,2544.00
2022-05-03T13:49:00,campus,2544.00
2022-05-03T13:50:00,campus,2544.00
2022-05-03T13:51:00,campus,2544.00
2022-05-03T13:52:00,campus,2538.00
2022-05-03T13:53:00,campus,2538.00
2022-05-03T13:54:00,campus,2538.00
2022-05-03T13:55:00,campus,2538.00
2022-05-03T13:56:00,campus,2538.00
2022-05-03T13:57:00,campus,2538.00
2022-05-03T13:58:00,campus,2538.00
2022-05-03T13:59:00,campus,2538.00
2022-05-03T14:00:00,campus,2538.00
2022-05-03T14:01:00,campus,2532.00
2022-05-03T14:02:00,campus,2526.00
2022-05-03T14:03:00,campus,2520.00
2022-05-03T14:04:00,campus,2520.00
2022-05-03T14:05:00,campus,2514.00
2022-05-03T14:06:00,campus,2502.00
2022-05-03T14:07:00,campus,2496.00
2022-05-03T14:08:00,campus,2490.00
2022-05-03T14:09:00,campus,2484.00
2022-05-03T14:10:00,campus,2478.00
2022-05-03T14:11:00,campus,2472.00
2022-05-03T14:12:00,campus,2460.00
2022-05-03T14:13:00,campus,2454.00
2022-05-03T14:14:00,campus,2454.00
2022-05-03T14:15:00,campus,2448.00
2022-05-03T14:16:00,campus,2448.00
2022-05-03T14:17:00,campus,2442.00
2022-05-03T14:18:00,campus,2436.00
2022-05-03T14:19:00,campus,2436.00
2022-05-03T14:20:00,campus,2430.00
2022-05-03T14:21:00,campus,2424.00
2022-05-03T14:22:00,campus,2418.00
2022-05-03T14:23:00,campus,2412.00
2022-05-03T14:24:00,campus,2412.00
2022-05-03T14:25:00,campus,2406.00
2022-05-03T14:26:00,campus,2400.00
2022-05-03T14:27:00,campus,2394.00
2022-05-03T14:28:00,campus,2388.00
2022-05-03T14:29:00,campus,2382.00
2022-05-03T14:30:00,campus,2376.00
2022-05-03T14:31:00,campus,2376.00
2022-05-03T14:32:00,campus,2376.00
2022-05-03T14:33:00,campus,2376.00
2022-05-03T14:34:00,campus,2376.00
2022-05-03T14:35:00,campus,2376.00
2022-05-03T14:36:00,campus,2382.00
2022-05-03T14:37:00,campus,2382.00
2022-05-03T14:38:00,campus,2388.00
2022-05-03T14:39:00,campus,2388.00
2022-05-03T14:40:00,campus,2400.00
2022-05-03T14:41:00,campus,2406.00
2022-05-03T14:42:00,campus,2412.00
2022-05-03T14:43:00,campus,2418.00
2022-05-03T14:44:00,campus,2418.00
2022-05-03T14:45:00,campus,2430.00
2022-05-03T14:46:00,campus,2430.00
2022-05-03T14:47:00,campus,2442.00
2022-05-03T14:48:00,campus,2448.00
2022-05-03T14:49:00,campus,2454.00
2022-05-03T14:50:00,campus,2460.00
2022-05-03T14:51:00,campus,2466.00
2022-05-03T14:52:00,campus,2478.00
2022-05-03T14:53:00,campus,2484.00
2022-05-03T14:54:00,campus,2502.00
2022-05-03T14:55:00,campus,2508.00
2022-05-03T14:56:00,campus,2520.00
2022-05-03T14:57:00,campus,2532.00
2022-05-03T14:58:00,campus,2544.00
2022-05-03T14:59:00,campus,2556.00
2022-05-03T15:00:00,campus,2568.00
2022-05-03T15:01:00,campus,2580.00
2022-05-03T15:02:00,campus,2586.00
2022-05-03T15:03:00,campus,2592.00
2022-05-03T15:04:00,campus,2604.00
2022-05-03T15:05:00,campus,2610.00
2022-05-03T15:06:00,campus,2616.00
2022-05-03T15:07:00,campus,2628.00
2022-05-03T15:08:00,campus,2628.00
2022-05-03T15:09:00,campus,2634.00
2022-05-03T15:10:00,campus,2634.00
2022-05-03T15:11:00,campus,2640.00
2022-05-03T15:12:00,campus,2646.00
2022-05-03T15:13:00,campus,2652.00
2022-05-03T15:14:00,campus,2658.00
2022-05-03T15:15:00,campus,2658.00
2022-05-03T15:16:00,campus,2664.00
2022-05-03T15:17:00,campus,2664.00
2022-05-03T15:18:00,campus,2664.00
2022-05-03T15:19:00,campus,2670.00
2022-05-03T15:20:00,campus,2670.00
2022-05-03T15:21:00,campus,2676.00
2022-05-03T15:22:00,campus,2676.00
2022-05-03T15:23:00,campus,2676.00
2022-05-03T15:24:00,campus,2670.00
2022-05-03T15:25:00,campus,2670.00
2022-05-03T15:26:00,campus,2664.00
2022-05-03T15:27:00,campus,2664.00
2022-05-03T15:28:00,campus,2658.00
2022-05-03T15:29:00,campus,2652.00
2022-05-03T15:30:00,campus,2652.00
2022-05-03T15:31:00,campus,2646.00
2022-05-03T15:32:00,campus,2646.00
2022-05-03T15:33:00,campus,2646.00
2022-05-03T15:34:00,campus,2646.00